Whitefield, NH

8:23 AM EST on November 23, 2017 (GMT -0500)
Mount Washington Regional

Weather History for KHIE - May, 2012

Change the Weather History Date:

Wednesday, May 2, 2012

  Actual Average Record
Temperature  
Mean Temperature 49 °F -  
Max Temperature 57 °F 59 °F 86 °F (2001)
Min Temperature 41 °F 31 °F 25 °F (2005)
Degree Days  
Heating Degree Days 16    
Moisture  
Dew Point 41 °F    
Average Humidity 75    
Maximum Humidity 93    
Minimum Humidity 59    
Precipitation  
Precipitation 0.00 in - - ()
Sea Level Pressure  
Sea Level Pressure 30.16 in    
Wind  
Wind Speed 2 mph (NE)    
Max Wind Speed 8 mph    
Max Gust Speed -    
Visibility 10 miles    
Events      
Averages and records for this station are not official NWS values.
T = Trace of Precipitation, MM = Missing Value Source: NWS Daily Summary

Daily Weather History Graph

Daily Weather History Graph

Search for Another Location

Airport or City:

Trip Planner

Search our weather history database for the weather conditions in past years. The results will help you decide how hot, cold, wet, or windy it might be!

Date:

Astronomy

May. 02, 2012 Rise Set
Actual Time 5:34 AM EDT 7:52 PM EDT
Civil Twilight 5:02 AM EDT 8:24 PM EDT
Nautical Twilight 4:23 AM EDT 9:04 PM EDT
Astronomical Twilight 3:38 AM EDT 9:48 PM EDT
Moon 3:53 PM EDT (5/2) 3:12 AM EDT (5/2)
Length of Visible Light 15h 21m
Length of Day
14h 17m
Waxing Gibbous, 83% of the Moon is Illuminated
May 2
Waxing Gibbous
May 5
Full
May 12
Last Quarter
May 20
New
May 28
First Quarter

Hourly Weather History & Observations

Time (EDT) Temp. Windchill Dew Point Humidity Pressure Visibility Wind Dir Wind Speed Gust Speed Precip Events Conditions
12:52 AM 42.1 °F - 37.0 °F 82% 30.14 in 10.0 mi Calm Calm - N/A   Overcast
1:52 AM 43.0 °F - 37.9 °F 82% 30.17 in 10.0 mi Calm Calm - N/A   Overcast
2:34 AM 42.8 °F - 37.4 °F 81% 30.14 in 9.0 mi Calm Calm - N/A   Overcast
2:42 AM 42.8 °F - 39.2 °F 87% 30.13 in 5.0 mi Calm Calm - N/A   Overcast
2:52 AM 42.1 °F 40.2 °F 39.0 °F 89% 30.16 in 4.0 mi East 3.5 mph - N/A   Overcast
3:25 AM 41.0 °F 39.0 °F 39.2 °F 93% 30.12 in 10.0 mi NE 3.5 mph - N/A   Overcast
3:52 AM 42.1 °F 39.2 °F 37.9 °F 85% 30.15 in 10.0 mi NE 4.6 mph - N/A   Overcast
4:52 AM 41.0 °F 37.1 °F 37.9 °F 89% 30.16 in 10.0 mi SSE 5.8 mph - N/A   Overcast
5:52 AM 42.1 °F - 37.9 °F 85% 30.18 in 10.0 mi Calm Calm - N/A   Overcast
6:52 AM 42.1 °F - 37.9 °F 85% 30.19 in 10.0 mi Calm Calm - N/A   Overcast
7:18 AM 42.8 °F - 37.4 °F 81% 30.18 in 10.0 mi Calm Calm - N/A   Overcast
7:52 AM 43.0 °F - 39.0 °F 86% 30.20 in 10.0 mi Calm Calm - N/A   Overcast
8:04 AM 44.6 °F - 39.2 °F 81% 30.17 in 10.0 mi Calm Calm - N/A   Overcast
8:50 AM 46.4 °F - 39.2 °F 76% 30.19 in 10.0 mi Calm Calm - N/A   Overcast
8:52 AM 46.0 °F - 39.0 °F 76% 30.22 in 10.0 mi Calm Calm - N/A   Overcast
9:52 AM 48.0 °F - 39.9 °F 74% 30.21 in 10.0 mi Calm Calm - N/A   Overcast
10:52 AM 51.1 °F - 41.0 °F 68% 30.19 in 10.0 mi Calm Calm - N/A   Overcast
11:52 AM 54.0 °F - 42.1 °F 64% 30.18 in 10.0 mi Calm Calm - N/A   Overcast
12:42 PM 55.4 °F - 42.8 °F 63% 30.16 in 10.0 mi WNW 5.8 mph - N/A   Overcast
12:52 PM 55.9 °F - 44.1 °F 64% 30.18 in 10.0 mi WNW 5.8 mph - N/A   Overcast
1:29 PM 55.4 °F - 42.8 °F 63% 30.15 in 10.0 mi NE 3.5 mph - N/A   Overcast
1:52 PM 55.0 °F - 43.0 °F 64% 30.17 in 10.0 mi Calm Calm - N/A   Overcast
2:29 PM 55.4 °F - 44.6 °F 67% 30.14 in 10.0 mi East 8.1 mph - N/A   Overcast
2:52 PM 55.0 °F - 43.0 °F 64% 30.16 in 10.0 mi East 8.1 mph - N/A   Overcast
3:52 PM 57.0 °F - 43.0 °F 59% 30.14 in 10.0 mi East 5.8 mph - N/A   Overcast
4:52 PM 57.9 °F - 44.1 °F 60% 30.13 in 10.0 mi East 6.9 mph - N/A   Overcast
5:52 PM 55.9 °F - 44.1 °F 64% 30.14 in 10.0 mi East 8.1 mph - N/A   Overcast
6:52 PM 53.1 °F - 43.0 °F 69% 30.14 in 10.0 mi Calm Calm - N/A   Overcast
7:52 PM 51.1 °F - 42.1 °F 71% 30.16 in 10.0 mi SSE 8.1 mph - N/A   Overcast
8:52 PM 50.0 °F - 42.1 °F 74% 30.17 in 10.0 mi NNW 4.6 mph - N/A   Overcast
9:35 PM 50.0 °F - 41.0 °F 71% 30.14 in 10.0 mi Calm Calm - N/A   Overcast
9:52 PM 48.9 °F - 42.1 °F 77% 30.16 in 10.0 mi North 3.5 mph - N/A   Overcast
10:26 PM 48.2 °F - 41.0 °F 76% 30.14 in 10.0 mi Calm Calm - N/A   Overcast
10:52 PM 48.9 °F - 41.0 °F 74% 30.15 in 10.0 mi Calm Calm - N/A   Overcast
11:52 PM 48.0 °F - 41.0 °F 77% 30.16 in 10.0 mi NW 3.5 mph - N/A   Overcast